Weather History for KCWV - October, 2011

Change the Weather History Date:

Friday, October 7, 2011

  Actual Average (KSAV) Record (KSAV)
Temperature  
Mean Temperature 68 °F 71 °F  
Max Temperature 82 °F 81 °F 94 °F (1951)
Min Temperature 53 °F 61 °F 44 °F (1964)
Degree Days  
Heating Degree Days 0 1  
Month to date heating degree days 5  
Since 1 July heating degree days 7  
Cooling Degree Days 2 7  
Month to date cooling degree days 52  
Year to date cooling degree days 2318  
Growing Degree Days 18 (Base 50)    
Moisture  
Dew Point 58 °F    
Average Humidity 75    
Maximum Humidity 100    
Minimum Humidity 51    
Precipitation  
Precipitation 0.00 in 0.14 in 2.81 in (1946)
Month to date precipitation 1.07  
Year to date precipitation 40.02  
Sea Level Pressure  
Sea Level Pressure 30.27 in    
Wind  
Wind Speed 4 mph (ENE)    
Max Wind Speed 13 mph    
Max Gust Speed 21 mph    
Visibility 10 miles    
Events Thunderstorm    
T = Trace of Precipitation, MM = Missing Value Source: NWS Daily Summary

Daily Weather History Graph

Daily Weather History Graph

Search for Another Location

Airport or City:

Trip Planner

Search our weather history database for the weather conditions in past years. The results will help you decide how hot, cold, wet, or windy it might be!

Date:

Astronomy

Oct. 07, 2011 Rise Set
Actual Time 7:25 AM EDT 7:04 PM EDT
Civil Twilight 7:00 AM EDT 7:29 PM EDT
Nautical Twilight 6:32 AM EDT 7:57 PM EDT
Astronomical Twilight 6:03 AM EDT 8:26 PM EDT
Moon 4:36 PM EDT (10/7) 3:26 AM EDT (10/7)
Length of Visible Light 12h 28m
Length of Day
11h 39m
Waxing Gibbous, 83% of the Moon is Illuminated
Oct 7
Waxing Gibbous
Oct 11
Full
Oct 19
Last Quarter
Oct 26
New
Nov 2
First Quarter

Hourly Weather History & Observations

Time (EDT) Temp. Heat Index Dew Point Humidity Pressure Visibility Wind Dir Wind Speed Gust Speed Precip Events Conditions
12:15 AM 55.4 °F - 53.6 °F 94% 30.27 in 10.0 mi Calm Calm - N/A   Clear
12:35 AM 55.4 °F - 53.6 °F 94% 30.27 in 10.0 mi Calm Calm - N/A   Clear
12:55 AM 55.4 °F - 53.6 °F 94% 30.26 in 10.0 mi Calm Calm - N/A   Clear
1:15 AM 55.4 °F - 51.8 °F 88% 30.27 in 10.0 mi Calm Calm - N/A   Clear
1:35 AM 53.6 °F - 51.8 °F 94% 30.26 in 10.0 mi Calm Calm - N/A   Clear
1:55 AM 53.6 °F - 51.8 °F 94% 30.26 in 10.0 mi Calm Calm - N/A   Clear
2:15 AM 53.6 °F - 51.8 °F 94% 30.27 in 10.0 mi Calm Calm - N/A   Clear
2:35 AM 53.6 °F - 51.8 °F 94% 30.26 in 10.0 mi Calm Calm - N/A   Clear
2:55 AM 53.6 °F - 51.8 °F 94% 30.26 in 10.0 mi Calm Calm - N/A   Clear
3:15 AM 53.6 °F - 51.8 °F 94% 30.26 in 10.0 mi Calm Calm - N/A   Clear
3:35 AM 53.6 °F - 51.8 °F 94% 30.25 in 10.0 mi Calm Calm - N/A   Clear
3:55 AM 53.6 °F - 53.6 °F 100% 30.25 in 10.0 mi Calm Calm - N/A   Clear
4:15 AM 55.4 °F - 53.6 °F 94% 30.25 in 10.0 mi Calm Calm - N/A   Clear
4:35 AM 53.6 °F - 53.6 °F 100% 30.25 in 10.0 mi Calm Calm - N/A   Clear
4:55 AM 53.6 °F - 53.6 °F 100% 30.25 in 10.0 mi Calm Calm - N/A   Clear
5:15 AM 53.6 °F - 53.6 °F 100% 30.25 in 10.0 mi Calm Calm - N/A   Clear
5:35 AM 55.4 °F - 53.6 °F 94% 30.25 in 10.0 mi NNE 3.5 mph - N/A   Clear
5:55 AM 60.8 °F - 55.4 °F 82% 30.25 in 10.0 mi NE 4.6 mph - N/A   Clear
6:15 AM 62.6 °F - 57.2 °F 82% 30.25 in 10.0 mi NE 4.6 mph - N/A   Clear
6:35 AM 62.6 °F - 57.2 °F 82% 30.26 in 10.0 mi NE 5.8 mph - N/A   Clear
6:55 AM 62.6 °F - 57.2 °F 82% 30.26 in 10.0 mi Calm Calm - N/A   Clear
7:15 AM 60.8 °F - 57.2 °F 88% 30.27 in 10.0 mi Calm Calm - N/A   Clear
7:35 AM 60.8 °F - 57.2 °F 88% 30.28 in 10.0 mi NE 4.6 mph - N/A   Clear
7:55 AM 62.6 °F - 59.0 °F 88% 30.28 in 10.0 mi NE 4.6 mph - N/A   Clear
8:15 AM 62.6 °F - 59.0 °F 88% 30.28 in 10.0 mi NE 4.6 mph - N/A   Clear
8:35 AM 64.4 °F - 59.0 °F 83% 30.29 in 10.0 mi NE 8.1 mph - N/A   Clear
8:55 AM 64.4 °F - 59.0 °F 83% 30.29 in 10.0 mi NE 10.4 mph - N/A   Clear
9:15 AM 68.0 °F - 57.2 °F 68% 30.30 in 10.0 mi NE 9.2 mph - N/A   Clear
9:35 AM 68.0 °F - 59.0 °F 73% 30.30 in 10.0 mi NE 9.2 mph - N/A   Clear
9:55 AM 69.8 °F - 59.0 °F 68% 30.30 in 10.0 mi NE 11.5 mph 19.6 mph N/A   Clear
10:15 AM 69.8 °F - 59.0 °F 68% 30.31 in 10.0 mi NE 10.4 mph 16.1 mph N/A   Clear
10:35 AM 71.6 °F - 60.8 °F 69% 30.31 in 10.0 mi ENE 11.5 mph 18.4 mph N/A   Clear
10:55 AM 71.6 °F - 60.8 °F 69% 30.31 in 10.0 mi East 10.4 mph - N/A   Clear
11:15 AM 73.4 °F - 60.8 °F 65% 30.31 in 10.0 mi ENE 11.5 mph 17.3 mph N/A   Clear
11:35 AM 77.0 °F - 62.6 °F 61% 30.31 in 10.0 mi East 11.5 mph 17.3 mph N/A   Clear
11:55 AM 77.0 °F - 62.6 °F 61% 30.31 in 10.0 mi ENE 10.4 mph - N/A   Clear
12:15 PM 77.0 °F - 62.6 °F 61% 30.31 in 10.0 mi East 11.5 mph 17.3 mph N/A   Clear
12:35 PM 78.8 °F - 62.6 °F 57% 30.30 in 10.0 mi ENE 8.1 mph - N/A   Clear
12:55 PM 78.8 °F - 62.6 °F 57% 30.29 in 10.0 mi ENE 10.4 mph 17.3 mph N/A   Clear
1:15 PM 80.6 °F 81.8 °F 62.6 °F 54% 30.29 in 10.0 mi East 6.9 mph 16.1 mph N/A Thunderstorm Mostly Cloudy
1:35 PM 78.8 °F - 62.6 °F 57% 30.28 in 10.0 mi ENE 6.9 mph 16.1 mph N/A   Mostly Cloudy
1:55 PM 78.8 °F - 62.6 °F 57% 30.28 in 10.0 mi ENE 8.1 mph - N/A   Mostly Cloudy
2:15 PM 82.4 °F 83.4 °F 62.6 °F 51% 30.27 in 10.0 mi ENE 6.9 mph - N/A   Mostly Cloudy
2:35 PM 82.4 °F 83.4 °F 62.6 °F 51% 30.26 in 10.0 mi ENE 10.4 mph 18.4 mph N/A   Mostly Cloudy
2:55 PM 82.4 °F 83.4 °F 62.6 °F 51% 30.26 in 10.0 mi ENE 11.5 mph 18.4 mph N/A   Scattered Clouds
3:15 PM 80.6 °F 81.8 °F 62.6 °F 54% 30.25 in 10.0 mi East 8.1 mph - N/A   Mostly Cloudy
3:35 PM 82.4 °F 83.4 °F 62.6 °F 51% 30.24 in 10.0 mi East 10.4 mph 20.7 mph N/A   Scattered Clouds
3:55 PM 80.6 °F 81.8 °F 62.6 °F 54% 30.24 in 10.0 mi ENE 10.4 mph - N/A   Mostly Cloudy
4:15 PM 80.6 °F 81.8 °F 62.6 °F 54% 30.24 in 10.0 mi East 12.7 mph 16.1 mph N/A   Scattered Clouds
4:35 PM 80.6 °F 81.5 °F 60.8 °F 51% 30.25 in 10.0 mi East 11.5 mph 18.4 mph N/A Thunderstorm Mostly Cloudy
4:55 PM 82.4 °F 83.4 °F 62.6 °F 51% 30.25 in 10.0 mi ENE 12.7 mph - N/A   Mostly Cloudy
5:15 PM 80.6 °F 81.5 °F 60.8 °F 51% 30.25 in 10.0 mi East 10.4 mph 16.1 mph N/A   Scattered Clouds
5:35 PM 80.6 °F 81.1 °F 59.0 °F 48% 30.25 in 10.0 mi East 13.8 mph - N/A   Clear
5:55 PM 80.6 °F 81.5 °F 60.8 °F 51% 30.25 in 10.0 mi ENE 15.0 mph 19.6 mph N/A   Scattered Clouds
6:35 PM 78.8 °F - 60.8 °F 54% 30.25 in 10.0 mi ENE 10.4 mph 16.1 mph N/A   Clear
6:55 PM 78.8 °F - 60.8 °F 54% 30.26 in 10.0 mi East 10.4 mph 20.7 mph N/A   Mostly Cloudy
7:15 PM 78.8 °F - 60.8 °F 54% 30.26 in 10.0 mi East 5.8 mph - N/A   Overcast
7:35 PM 77.0 °F - 60.8 °F 57% 30.27 in 10.0 mi East 9.2 mph - N/A Thunderstorm Overcast
7:55 PM 77.0 °F - 59.0 °F 54% 30.27 in 10.0 mi East 6.9 mph - N/A   Mostly Cloudy
8:15 PM 75.2 °F - 59.0 °F 57% 30.28 in 10.0 mi East 9.2 mph - N/A   Mostly Cloudy
8:35 PM 75.2 °F - 59.0 °F 57% 30.29 in 10.0 mi East 5.8 mph - N/A   Overcast
8:55 PM 73.4 °F - 59.0 °F 61% 30.30 in 10.0 mi East 6.9 mph - N/A   Scattered Clouds
9:15 PM 71.6 °F - 59.0 °F 64% 30.31 in 10.0 mi East 5.8 mph - N/A   Clear
9:35 PM 71.6 °F - 59.0 °F 64% 30.31 in 10.0 mi ENE 9.2 mph 16.1 mph N/A   Clear
9:55 PM 71.6 °F - 59.0 °F 64% 30.31 in 10.0 mi ENE 5.8 mph - N/A   Clear
10:15 PM 69.8 °F - 59.0 °F 68% 30.31 in 10.0 mi ENE 6.9 mph - N/A   Clear
10:55 PM 69.8 °F - 60.8 °F 73% 30.31 in 10.0 mi ENE 6.9 mph - N/A   Clear
11:15 PM 69.8 °F - 60.8 °F 73% 30.31 in 10.0 mi ENE 9.2 mph - N/A   Clear
11:35 PM 69.8 °F - 60.8 °F 73% 30.31 in 10.0 mi ENE 8.1 mph - N/A   Clear
11:55 PM 69.8 °F - 60.8 °F 73% 30.30 in 10.0 mi ENE 9.2 mph - N/A   Clear